[[{"header":{"parameterUnit":"m.s-1","parameterCategory":1,"la1":30.2991,"la2":30.254,"lo1":-89.0895,"lo2":-89.0444,"dy":0.0017,"dx":0.0017,"nx":28,"ny":28,"refTime":"2024-02-12T09:00:00:Z","depth":0,"parameterNumber":2,"parameterNumberName":"U-component_of_WINDS"},"data":[0,0,0,0,0,0,0,0,0,0,0,0,0,0,0,0,0,0,0,0,0,0,0,0,0,0,0,0,0,0,0,0,0,0,0,0,0,0,0,0,0,0,0,0,0,0,0,0,0,0,0,0,0,0,0,0,0,0,0.65,0.65,0,0.6567,0.6568,0.6569,0.6586,0.6585,0.6585,0.6584,0.6656,0.6658,0.6661,0,0,0,0,0,0,0,0,0,0,0,0,0,0.6389,0.6391,0.6499,0.65,0.6501,0.6567,0.6568,0.6569,0.6586,0.6585,0.6585,0.6584,0.6655,0.6658,0.6661,0,0,0,0,0,0,0,0,0,0,0,0,0,0.6445,0.6392,0.6499,0.6517,0.652,0.6567,0.6568,0.6569,0.6586,0.6585,0.6585,0.6584,0.6654,0.6658,0.6661,0.6696,0,0,0.6672,0.6673,0,0,0,0,0,0,0,0,0.6442,0.6449,0.6514,0.6516,0.6519,0.6567,0.6555,0.6612,0.6586,0.6561,0.6584,0.6584,0.6627,0.6633,0.6647,0.6699,0.6702,0.6672,0.6674,0.6676,0.6677,0,0,0,0,0,0,0,0.6438,0.6446,0.6526,0.6515,0.6518,0.6524,0.6531,0.6566,0.6597,0.6563,0.6564,0.6572,0.6629,0.6644,0.6649,0.6703,0.6672,0.6675,0.6677,0.6679,0.679,0.679,0,0,0,0,0,0,0.643,0.6443,0.6524,0.6528,0.6478,0.6526,0.6534,0.6552,0.6597,0.6603,0.6572,0.6573,0.6638,0.6645,0.6652,0.6697,0.6676,0.6679,0.6681,0.6789,0.679,0.6791,0,0,0,0,0,0,0.6428,0.6437,0.6521,0.6486,0.6497,0.6529,0.6549,0.6554,0.6569,0.6604,0.661,0.6582,0.6638,0.6647,0.6685,0.6699,0.6681,0.6684,0.6788,0.6789,0.679,0.6786,0,0,0,0,0,0,0.6425,0.6436,0.6449,0.6486,0.6499,0.6553,0.655,0.6556,0.6575,0.6576,0.6614,0.662,0.6638,0.668,0.6688,0.6704,0.6686,0.6787,0.6788,0.679,0.6785,0.6786,0.6788,0,0,0,0,0,0.6421,0.6445,0.6449,0.6459,0.6515,0.6553,0.6561,0.658,0.6576,0.659,0.6612,0.6619,0.6696,0.6683,0.6693,0.671,0.6786,0.6788,0.679,0.6784,0.6786,0.6788,0,0,0,0,0,0,0.6409,0.645,0.6455,0.6492,0.6519,0.6556,0.6574,0.6582,0.6611,0.661,0.6634,0.6643,0.668,0.6699,0.6684,0.6747,0.6741,0.6745,0.6733,0.6736,0.6737,0.6733,0.6689,0,0,0,0,0,0.6411,0.6437,0.6472,0.6501,0.6514,0.6542,0.6559,0.6572,0.6601,0.6613,0.6638,0.6667,0.6698,0.6718,0.6748,0.6787,0.6797,0.6804,0.6805,0.6807,0.681,0.6835,0.6839,0.6797,0.6797,0.6797,0,0,0.6414,0.644,0.6456,0.65,0.6522,0.6551,0.6551,0.6581,0.6603,0.6617,0.6655,0.6675,0.6709,0.6749,0.6767,0.6765,0.6824,0.6809,0.681,0.6813,0.6837,0.6841,0.6844,0.6798,0.6798,0.6798,0,0,0.6436,0.6458,0.6485,0.6508,0.6541,0.656,0.6566,0.6602,0.6616,0.6654,0.6666,0.6693,0.6745,0.677,0.6789,0.6822,0.683,0.6831,0.6841,0.6864,0.6867,0.6871,0.6884,0.6888,0.6834,0.6834,0.6834,0,0.6437,0.648,0.6499,0.6528,0.6548,0.6562,0.6591,0.6613,0.6655,0.6669,0.6666,0.6733,0.6757,0.6803,0.6811,0.6826,0.6836,0.6827,0.6865,0.6868,0.6872,0.6885,0.689,0.6834,0.6834,0.6834,0.6834,0,0.648,0.6509,0.6528,0.6568,0.659,0.6619,0.6644,0.6664,0.6675,0.6694,0.6734,0.6763,0.6801,0.6812,0.6823,0.6861,0.6859,0.686,0.6855,0.6875,0.6888,0.6893,0.6834,0.6834,0.6834,0.6834,0,0,0.6496,0.6547,0.6554,0.6573,0.6612,0.6636,0.6666,0.6702,0.672,0.6749,0.6776,0.6821,0.6823,0.6845,0.6859,0.6879,0.6906,0.6878,0.688,0.6884,0.6952,0.6951,0.6957,0.6911,0.6912,0.6913,0.6949,0,0.6524,0.6579,0.6597,0.6643,0.6672,0.6686,0.6713,0.6741,0.6759,0.6788,0.6809,0.6841,0.684,0.6853,0.6874,0.6898,0.692,0.6895,0.6939,0.694,0.6931,0.6963,0.6963,0.6996,0.6954,0.6955,0.6956,0,0.6564,0.6593,0.6642,0.6678,0.6691,0.6715,0.675,0.6776,0.6809,0.6821,0.6846,0.6859,0.6894,0.6886,0.6935,0.6918,0.6937,0.6952,0.6953,0.6959,0.695,0.6971,0.7006,0.7012,0.6963,0.6963,0.6962,0,0.6573,0.6625,0.6661,0.6677,0.672,0.6737,0.6756,0.6787,0.6808,0.684,0.6854,0.6889,0.6908,0.6936,0.6959,0.6951,0.7007,0.7,0.702,0.7019,0.7032,0.7031,0.7072,0.7041,0.7041,0.7041,0.7041,0,0.6603,0.6633,0.6666,0.6688,0.6722,0.6744,0.6778,0.6798,0.6826,0.6854,0.6868,0.6894,0.6922,0.6952,0.697,0.701,0.7018,0.703,0.7035,0.703,0.7028,0.7043,0.7042,0.7042,0.7042,0.7042,0.7042,0,0.662,0.6643,0.6683,0.6721,0.6731,0.6755,0.6788,0.6811,0.6831,0.6866,0.6876,0.6907,0.6944,0.6969,0.7015,0.7028,0.7071,0.7074,0.706,0.7062,0.7081,0.708,0.7134,0.7143,0.7105,0.7105,0.7106,0,0.6638,0.6661,0.6701,0.6721,0.674,0.677,0.6792,0.6815,0.6837,0.6877,0.6895,0.6933,0.6964,0.7022,0.705,0.7086,0.7092,0.7108,0.7097,0.7092,0.7094,0.7093,0.7097,0.711,0.7111,0.7111,0.7111,0,0.6669,0.6679,0.6709,0.6744,0.6769,0.6797,0.6826,0.6841,0.687,0.6894,0.6931,0.6955,0.7003,0.7041,0.708,0.7102,0.7112,0.7114,0.7121,0.7117,0.7108,0.7115,0.7066,0.7113,0.7113,0.7113,0.7113,0.7113,0.6688,0.671,0.6742,0.6775,0.6799,0.6826,0.685,0.6873,0.6904,0.6945,0.6956,0.6996,0.703,0.7083,0.7105,0.7137,0.7136,0.7146,0.7148,0.7151,0.7152,0.7102,0.7145,0.7145,0.7144,0.7144,0.7144,0,0.6721,0.6742,0.6773,0.6813,0.684,0.6846,0.6878,0.6901,0.6935,0.6965,0.6995,0.7039,0.7076,0.7107,0.7146,0.7166,0.7171,0.7175,0.7175,0.718,0.7149,0.7141,0.717,0.717,0.717,0.717,0.717,0.717,0.6741,0.6779,0.6794,0.6845,0.6866,0.6904,0.6923,0.6948,0.6972,0.702,0.7051,0.7071,0.7102,0.7143,0.7178,0.7186,0.7201,0.7204,0.7213,0.7185,0.7182,0.7179,0.7171,0.7206,0.7206,0.7241,0.7242,0.7242]},{"header":{"parameterUnit":"m.s-1","parameterCategory":1,"la1":30.2991,"la2":30.254,"lo1":-89.0895,"lo2":-89.0444,"dy":0.0017,"dx":0.0017,"nx":28,"ny":28,"refTime":"2024-02-12T09:00:00:Z","depth":0,"parameterNumber":3,"parameterNumberName":"V-component_of_WINDS"},"data":[0,0,0,0,0,0,0,0,0,0,0,0,0,0,0,0,0,0,0,0,0,0,0,0,0,0,0,0,0,0,0,0,0,0,0,0,0,0,0,0,0,0,0,0,0,0,0,0,0,0,0,0,0,0,0,0,0,0,-3.5663,-3.5664,0,-3.5722,-3.5723,-3.5723,-3.5764,-3.5765,-3.5765,-3.5765,-3.5821,-3.5822,-3.5824,0,0,0,0,0,0,0,0,0,0,0,0,0,-3.5586,-3.5587,-3.5663,-3.5664,-3.5665,-3.5722,-3.5723,-3.5723,-3.5764,-3.5765,-3.5765,-3.5766,-3.5821,-3.5822,-3.5824,0,0,0,0,0,0,0,0,0,0,0,0,0,-3.5629,-3.5587,-3.5663,-3.5692,-3.5695,-3.5722,-3.5723,-3.5724,-3.5764,-3.5765,-3.5765,-3.5766,-3.582,-3.5822,-3.5824,-3.5825,0,0,-3.5829,-3.583,0,0,0,0,0,0,0,0,-3.5627,-3.5632,-3.5687,-3.569,-3.5694,-3.5737,-3.5716,-3.5757,-3.5764,-3.5738,-3.5765,-3.5766,-3.5792,-3.5796,-3.5806,-3.5827,-3.583,-3.5829,-3.583,-3.5831,-3.5832,0,0,0,0,0,0,0,-3.5624,-3.563,-3.5686,-3.5688,-3.5692,-3.5702,-3.5709,-3.5724,-3.5761,-3.574,-3.5743,-3.575,-3.5794,-3.5804,-3.5808,-3.5831,-3.5829,-3.5831,-3.5832,-3.5833,-3.5859,-3.5858,0,0,0,0,0,0,-3.5616,-3.5627,-3.5685,-3.5688,-3.5661,-3.5703,-3.571,-3.5722,-3.5761,-3.5768,-3.575,-3.5752,-3.5801,-3.5806,-3.581,-3.5815,-3.5831,-3.5833,-3.5834,-3.5859,-3.5858,-3.5858,0,0,0,0,0,0,-3.5615,-3.5621,-3.5682,-3.5659,-3.5667,-3.5704,-3.5717,-3.5723,-3.5733,-3.5769,-3.5775,-3.5753,-3.5802,-3.5807,-3.5822,-3.5818,-3.5834,-3.5835,-3.5859,-3.5859,-3.5858,-3.5825,0,0,0,0,0,0,-3.5612,-3.562,-3.5621,-3.5658,-3.5668,-3.5693,-3.5716,-3.5724,-3.5737,-3.574,-3.5774,-3.578,-3.5803,-3.5819,-3.5824,-3.5821,-3.5837,-3.586,-3.5859,-3.5858,-3.5827,-3.5823,-3.5821,0,0,0,0,0,-3.5609,-3.5608,-3.5621,-3.5627,-3.567,-3.5693,-3.5698,-3.5726,-3.5736,-3.5737,-3.5761,-3.5779,-3.5818,-3.582,-3.5826,-3.5823,-3.586,-3.5859,-3.5859,-3.5828,-3.5824,-3.5821,0,0,0,0,0,0,-3.5566,-3.5613,-3.5628,-3.5638,-3.5662,-3.57,-3.5702,-3.5721,-3.574,-3.5742,-3.5775,-3.5782,-3.5793,-3.581,-3.5811,-3.5828,-3.5841,-3.5842,-3.5816,-3.5813,-3.581,-3.5805,-3.5838,0,0,0,0,0,-3.5558,-3.5574,-3.5614,-3.5619,-3.563,-3.5664,-3.5675,-3.5695,-3.5719,-3.5729,-3.5753,-3.5775,-3.5794,-3.5804,-3.5822,-3.583,-3.5838,-3.5831,-3.5828,-3.5825,-3.5825,-3.5832,-3.583,-3.5855,-3.5855,-3.5855,0,0,-3.5541,-3.5569,-3.5576,-3.5611,-3.5631,-3.5647,-3.5672,-3.5686,-3.5698,-3.5731,-3.5746,-3.5765,-3.5793,-3.5804,-3.5811,-3.5818,-3.582,-3.5824,-3.5822,-3.5823,-3.5831,-3.5829,-3.5827,-3.5855,-3.5855,-3.5855,0,0,-3.5518,-3.554,-3.5549,-3.557,-3.5601,-3.5625,-3.5627,-3.5663,-3.5677,-3.5694,-3.572,-3.5735,-3.5764,-3.5783,-3.5797,-3.5786,-3.5804,-3.5791,-3.5775,-3.5782,-3.578,-3.5778,-3.5775,-3.5774,-3.579,-3.579,-3.579,0,-3.5492,-3.5518,-3.555,-3.5564,-3.5579,-3.5613,-3.5622,-3.564,-3.5675,-3.5685,-3.5694,-3.5734,-3.5754,-3.5772,-3.577,-3.578,-3.5783,-3.5786,-3.5778,-3.5776,-3.5775,-3.5773,-3.5772,-3.5789,-3.5789,-3.5789,-3.5789,0,-3.5485,-3.5502,-3.5505,-3.5541,-3.5557,-3.5568,-3.5603,-3.5615,-3.5634,-3.5657,-3.5675,-3.5701,-3.5727,-3.5733,-3.575,-3.5754,-3.5758,-3.5772,-3.5786,-3.5771,-3.5769,-3.5768,-3.5786,-3.5787,-3.5787,-3.5788,0,0,-3.5433,-3.5491,-3.5491,-3.5509,-3.5549,-3.5562,-3.5576,-3.5603,-3.5613,-3.5637,-3.565,-3.5676,-3.5691,-3.5706,-3.5727,-3.5733,-3.5725,-3.5747,-3.5748,-3.5742,-3.5732,-3.5721,-3.572,-3.5738,-3.5738,-3.5737,-3.573,0,-3.5417,-3.5444,-3.5476,-3.5492,-3.551,-3.5544,-3.5556,-3.5582,-3.5604,-3.5622,-3.5646,-3.5664,-3.5681,-3.5691,-3.5699,-3.5724,-3.5723,-3.5725,-3.5749,-3.575,-3.5741,-3.5719,-3.5707,-3.5698,-3.5729,-3.5729,-3.5729,0,-3.54,-3.5425,-3.5444,-3.5486,-3.5494,-3.5504,-3.5534,-3.555,-3.558,-3.5596,-3.5616,-3.5639,-3.5656,-3.567,-3.5694,-3.5695,-3.5707,-3.5721,-3.5721,-3.5724,-3.5738,-3.5721,-3.5696,-3.5694,-3.5728,-3.5728,-3.5728,0,-3.5361,-3.54,-3.5418,-3.5432,-3.548,-3.5487,-3.5507,-3.5538,-3.5554,-3.5579,-3.559,-3.5616,-3.563,-3.5649,-3.568,-3.5686,-3.5701,-3.5716,-3.5714,-3.5714,-3.5715,-3.5714,-3.5691,-3.5723,-3.5723,-3.5723,-3.5723,0,-3.5339,-3.5349,-3.5402,-3.5412,-3.5425,-3.5462,-3.5474,-3.5498,-3.5526,-3.5542,-3.5572,-3.5586,-3.5625,-3.5644,-3.5668,-3.5685,-3.5691,-3.5704,-3.571,-3.5701,-3.57,-3.5709,-3.571,-3.5723,-3.5723,-3.5723,-3.5723,0,-3.5297,-3.5332,-3.5354,-3.5399,-3.5411,-3.5419,-3.5458,-3.547,-3.5496,-3.5515,-3.5522,-3.5562,-3.5586,-3.5618,-3.5651,-3.5668,-3.5682,-3.5691,-3.5672,-3.5676,-3.5672,-3.5672,-3.5654,-3.5654,-3.5685,-3.5685,-3.5685,0,-3.528,-3.529,-3.5338,-3.5352,-3.5372,-3.5393,-3.541,-3.5448,-3.5464,-3.5502,-3.5509,-3.5536,-3.556,-3.5597,-3.5628,-3.5654,-3.5665,-3.5657,-3.5669,-3.5661,-3.5666,-3.5665,-3.5666,-3.5653,-3.5653,-3.5653,-3.5652,0,-3.5247,-3.5265,-3.5289,-3.5321,-3.5341,-3.5366,-3.5393,-3.5403,-3.5446,-3.5463,-3.549,-3.5508,-3.5545,-3.5571,-3.5603,-3.5623,-3.5645,-3.5649,-3.565,-3.5641,-3.5629,-3.5636,-3.5664,-3.5649,-3.5649,-3.5649,-3.5649,-3.565,-3.5217,-3.5229,-3.5265,-3.5292,-3.5317,-3.5343,-3.5357,-3.5387,-3.541,-3.5444,-3.5464,-3.549,-3.5523,-3.5568,-3.5588,-3.5609,-3.5617,-3.5618,-3.5619,-3.5618,-3.5616,-3.5627,-3.5614,-3.5615,-3.5615,-3.5615,-3.5615,0,-3.5186,-3.5213,-3.5237,-3.5276,-3.5298,-3.532,-3.5352,-3.5368,-3.5391,-3.5421,-3.5445,-3.5477,-3.5504,-3.5539,-3.5568,-3.5578,-3.5589,-3.5585,-3.5584,-3.5589,-3.5606,-3.5603,-3.5576,-3.5576,-3.5576,-3.5576,-3.5576,-3.5576,-3.5172,-3.5193,-3.5217,-3.5251,-3.5277,-3.5305,-3.5322,-3.5346,-3.537,-3.5405,-3.5429,-3.5453,-3.5485,-3.5518,-3.5544,-3.5554,-3.5563,-3.5556,-3.5569,-3.5584,-3.5587,-3.5591,-3.5588,-3.5558,-3.5558,-3.555,-3.555,-3.555]}]]